Terminal Aerodrome Forecast
Issued by NWS Sterling, VA

Current Version | Previous Version | Text Only | Print | Product List | Glossary Off
Versions: 1 2 3 4 5 6 7 8 9 10 11 12 13 14 15 16 17 18 19 20 21 22 23

000
FTUS41 KLWX 301700
TAFDCA
TAF
KDCA 301733Z 3018/3118 32016G20KT P6SM SCT026 SCT070 BKN080
     FM310700 31014KT P6SM FEW250
     FM311100 31012G21KT P6SM SKC=

USA.gov is the U.S. government's official web portal to all federal, state and local government web resources and services.